Dijon, France

9:18 PM CEST on April 25, 2017 (GMT +0200)
Longvic Air Base

Weather History for LFSD - November, 2012

Change the Weather History Date:

Sunday, November 25, 2012

  Actual Average Record
Temperature  
Mean Temperature 52 °F -  
Max Temperature 57 °F 41 °F 66 °F (2006)
Min Temperature 48 °F 31 °F 19 °F (1998)
Degree Days  
Heating Degree Days 12    
Growing Degree Days 2 (Base 50)    
Moisture  
Dew Point 44 °F    
Average Humidity 73    
Maximum Humidity 87    
Minimum Humidity 53    
Precipitation  
Precipitation 0.00 in 0.08 in - ()
Sea Level Pressure  
Sea Level Pressure 30.03 in    
Wind  
Wind Speed 8 mph ()    
Max Wind Speed 15 mph    
Max Gust Speed -    
Visibility 6.2 miles    
Events Rain    
Averages and records for this station are not official NWS values.
T = Trace of Precipitation, MM = Missing Value Source: Averaged Metar Reports

Daily Weather History Graph

Daily Weather History Graph

Search for Another Location

Airport or City:

Trip Planner

Search our weather history database for the weather conditions in past years. The results will help you decide how hot, cold, wet, or windy it might be!

Date:

Astronomy

Nov. 25, 2012 Rise Set
Actual Time 7:58 AM CET 4:54 PM CET
Civil Twilight 7:23 AM CET 5:29 PM CET
Nautical Twilight 6:45 AM CET 6:07 PM CET
Astronomical Twilight 6:09 AM CET 6:43 PM CET
Moon 3:10 PM CET 4:48 AM CET
Length of Visible Light 10h 05m
Length of Day
8h 56m
Waxing Gibbous, 91% of the Moon is Illuminated
Nov 25
Waxing Gibbous
Nov 28
Full
Dec 6
Last Quarter
Dec 13
New
Dec 20
First Quarter

Hourly Weather History & Observations

Time (CET) Temp. Dew Point Humidity Pressure Visibility Wind Dir Wind Speed Gust Speed Precip Events Conditions
12:00 AM 55.4 °F 48.2 °F 77% 29.98 in 6.2 mi South 13.8 mph - N/A   Unknown
12:30 AM 55.4 °F 48.2 °F 77% 29.98 in 6.2 mi SSW 11.5 mph - N/A   Unknown
1:00 AM 55 °F 48 °F 71% 29.99 in 25 mi SSW 9.2 mph - -   Clear
1:00 AM 55.4 °F 48.2 °F 77% 29.98 in 6.2 mi SSW 9.2 mph - N/A   Unknown
1:30 AM 55.4 °F 48.2 °F 77% 29.98 in 6.2 mi SSW 8.1 mph - N/A   Unknown
2:00 AM 55.4 °F 48.2 °F 77% 29.98 in 6.2 mi South 9.2 mph - N/A   Unknown
2:30 AM 55.4 °F 48.2 °F 77% 29.98 in 6.2 mi South 10.4 mph - N/A   Unknown
3:00 AM 55.4 °F 48.2 °F 77% 30.01 in 6.2 mi SSW 8.1 mph - N/A   Unknown
3:30 AM 53.6 °F 48.2 °F 82% 30.01 in 6.2 mi SSW 6.9 mph - N/A   Unknown
4:00 AM 53.6 °F 48.2 °F 82% 29.98 in 6.2 mi SSW 8.1 mph - N/A   Unknown
4:30 AM 53.6 °F 46.4 °F 77% 29.98 in 6.2 mi SSW 6.9 mph - N/A   Unknown
5:00 AM 51.8 °F 46.4 °F 82% 29.98 in 6.2 mi South 8.1 mph - N/A   Mostly Cloudy
5:30 AM 51.8 °F 46.4 °F 82% 30.01 in 6.2 mi South 9.2 mph - N/A   Partly Cloudy
6:00 AM 53.6 °F 46.4 °F 77% 30.01 in 6.2 mi SSW 11.5 mph - N/A   Unknown
6:30 AM 53.6 °F 46.4 °F 77% 30.01 in 6.2 mi SSW 11.5 mph - N/A   Unknown
7:00 AM 54 °F 46 °F 66% 30.03 in 34 mi SSW 12.7 mph - -   Clear
7:00 AM 53.6 °F 46.4 °F 77% 30.01 in 6.2 mi SSW 12.7 mph - N/A   Unknown
7:30 AM 55.4 °F 46.4 °F 72% 30.04 in 6.2 mi SW 11.5 mph - N/A   Unknown
8:00 AM 53.6 °F 46.4 °F 77% 30.04 in 6.2 mi WSW 9.2 mph - N/A   Unknown
8:30 AM 53.6 °F 46.4 °F 77% 30.04 in 6.2 mi WSW 5.8 mph - N/A   Mostly Cloudy
9:00 AM 53.6 °F 44.6 °F 72% 30.06 in 6.2 mi WSW 9.2 mph - N/A   Mostly Cloudy
9:30 AM 55.4 °F 42.8 °F 63% 30.06 in 6.2 mi SW 12.7 mph - N/A   Unknown
10:00 AM 55.4 °F 42.8 °F 63% 30.06 in 6.2 mi WSW 11.5 mph - N/A   Unknown
10:30 AM 57.2 °F 42.8 °F 59% 30.09 in 6.2 mi SW 15.0 mph - N/A   Overcast
11:00 AM 55.4 °F 41.0 °F 58% 30.09 in 6.2 mi WSW 13.8 mph - N/A   Overcast
11:30 AM 55.4 °F 42.8 °F 63% 30.09 in 6.2 mi WSW 13.8 mph - N/A   Overcast
12:00 PM 55.4 °F 42.8 °F 63% 30.09 in 6.2 mi WSW 9.2 mph - N/A   Overcast
12:30 PM 53.6 °F 42.8 °F 67% 30.09 in 6.2 mi SW 12.7 mph - N/A   Overcast
1:00 PM 54 °F 42 °F 53% 30.10 in 37 mi SW 9.2 mph - -   Clear
1:00 PM 53.6 °F 41.0 °F 62% 30.09 in 6.2 mi SW 9.2 mph - N/A   Overcast
1:30 PM 53.6 °F 42.8 °F 67% 30.06 in 6.2 mi SW 8.1 mph - N/A   Unknown
2:00 PM 53.6 °F 41.0 °F 62% 30.06 in 6.2 mi SSW 8.1 mph - N/A   Unknown
2:30 PM 53.6 °F 42.8 °F 67% 30.06 in 6.2 mi SSW 6.9 mph - N/A   Overcast
3:00 PM 53.6 °F 42.8 °F 67% 30.06 in 6.2 mi SW 9.2 mph - N/A   Unknown
3:30 PM 53.6 °F 42.8 °F 67% 30.06 in 6.2 mi SW 8.1 mph - N/A   Unknown
4:00 PM 53.6 °F 41.0 °F 62% 30.04 in 6.2 mi SW 8.1 mph - N/A   Overcast
4:30 PM 51.8 °F 41.0 °F 67% 30.04 in 6.2 mi Variable 3.5 mph - N/A   Unknown
5:00 PM 50.0 °F 42.8 °F 76% 30.04 in 6.2 mi Variable 3.5 mph - N/A   Overcast
5:30 PM 50.0 °F 41.0 °F 71% 30.04 in 6.2 mi SSE 3.5 mph - N/A   Unknown
6:00 PM 48.2 °F 41.0 °F 76% 30.04 in 6.2 mi Calm Calm - N/A   Mostly Cloudy
6:30 PM 48.2 °F 41.0 °F 76% 30.04 in 6.2 mi ESE 1.2 mph - N/A   Overcast
7:00 PM 48 °F 42 °F 72% 30.05 in 37 mi ESE 1.2 mph - -   Clear
7:00 PM 48.2 °F 41.0 °F 76% 30.04 in 6.2 mi Calm Calm - N/A   Overcast
7:30 PM 48.2 °F 42.8 °F 82% 30.01 in 6.2 mi Calm Calm - N/A   Overcast
8:00 PM 48.2 °F 42.8 °F 82% 30.01 in 6.2 mi Calm Calm - N/A   Overcast
8:30 PM 48.2 °F 42.8 °F 82% 30.01 in 6.2 mi Calm Calm - N/A   Overcast
9:00 PM 48.2 °F 42.8 °F 82% 30.01 in 6.2 mi NNW 2.3 mph - N/A   Mostly Cloudy
9:30 PM 48.2 °F 42.8 °F 82% 29.98 in 6.2 mi NW 1.2 mph - N/A   Mostly Cloudy
10:00 PM 48.2 °F 42.8 °F 82% 29.98 in 6.2 mi North 2.3 mph - N/A   Overcast
10:30 PM 48.2 °F 44.6 °F 87% 29.98 in 6.2 mi NNW 3.5 mph - N/A Rain Light Rain
11:00 PM 48.2 °F 42.8 °F 82% 29.95 in 6.2 mi North 3.5 mph - N/A   Overcast
11:30 PM 48.2 °F 44.6 °F 87% 29.95 in 6.2 mi NNW 3.5 mph - N/A   Overcast